This is the latest recevied weather packets stored in our database for station/object NK2J. If no packets are shown the sender has not sent any weather packets the latest 10 day(s).
| Time | Temp. | Humidity | Pressure | Rain* | Wind** | Luminosity | Snow |
|---|---|---|---|---|---|---|---|
| 1778067875 | 12.78° C | 57% | 1016.4 hPa | 0 mm | - | 0 W/m² | - |
| 1778067573 | 13.33° C | 56% | 1016.3 hPa | 0 mm | - | 0 W/m² | - |
| 1778067271 | 13.33° C | 55% | 1016.3 hPa | 0 mm | - | 0 W/m² | - |
| 1778066967 | 13.33° C | 55% | 1016.3 hPa | 0 mm | - | 0 W/m² | - |
| 1778066665 | 13.33° C | 55% | 1016.4 hPa | 0 mm | - | 0 W/m² | - |
| 1778066362 | 13.33° C | 56% | 1016.3 hPa | 0 mm | - | 0 W/m² | - |
| 1778066060 | 13.89° C | 58% | 1016.2 hPa | 0 mm | - | 0 W/m² | - |
| 1778065757 | 13.89° C | 57% | 1016.3 hPa | 0 mm | - | 0 W/m² | - |
| 1778065455 | 13.89° C | 57% | 1016.2 hPa | 0 mm | - | 0 W/m² | - |
| 1778065151 | 13.33° C | 61% | 1016.3 hPa | 0 mm | - | 0 W/m² | - |
| 1778064847 | 13.89° C | 62% | 1016.1 hPa | 0 mm | - | 0 W/m² | - |
| 1778064545 | 13.89° C | 62% | 1016.1 hPa | 0 mm | - | 0 W/m² | - |
| 1778064243 | 13.89° C | 61% | 1016.3 hPa | 0 mm | - | 0 W/m² | - |
| 1778063940 | 13.89° C | 62% | 1016.1 hPa | 0 mm | - | 0 W/m² | - |
| 1778063637 | 13.89° C | 59% | 1016 hPa | 0 mm | - | 0 W/m² | - |
| 1778063334 | 14.44° C | 60% | 1016 hPa | 0 mm | - | 0 W/m² | - |
| 1778063032 | 14.44° C | 57% | 1015.9 hPa | 0 mm | - | 0 W/m² | - |
| 1778062729 | 14.44° C | 60% | 1015.9 hPa | 0 mm | - | 0 W/m² | - |
| 1778062425 | 14.44° C | 60% | 1015.7 hPa | 0 mm | - | 0 W/m² | - |
| 1778062123 | 14.44° C | 60% | 1015.8 hPa | 0 mm | - | 0 W/m² | - |
| 1778061821 | 15° C | 58% | 1015.8 hPa | 0 mm | - | 0 W/m² | - |
| 1778061519 | 14.44° C | 58% | 1015.9 hPa | 0 mm | - | 0 W/m² | - |
| 1778061216 | 14.44° C | 58% | 1015.7 hPa | 0 mm | - | 0 W/m² | - |
| 1778060913 | 15° C | 59% | 1015.8 hPa | 0 mm | - | 0 W/m² | - |
| 1778060612 | 15° C | 58% | 1015.7 hPa | 0 mm | - | 0 W/m² | - |
* Rain latest hour (hover to see other rain measurements)
** Current wind speed in m/s (hover to see current wind gust speed)